Lexington Weather

Lexington, Massachusetts, USA

45°F
4/22/2024 9:39am 
  • Lexington Conditions: Clear
  • Temperature: 45.1°F / 7.3°CWarmer 1.9°F than last hour.
  • Dew Point: 24.4°FDecreased 2.4°Fsince last hour.
  • Relative Humidity: 44%Decreased 8.0% since last hour.
  • Wind: Calm, 10-min avg: Calm, gust: 5 mph
  • Barometer: 29.97 in Steady
  • Visibility: 10 miles
  • Rain Today: 0.00 in
  •   

Regional Weather Roundup
for Boston, MA

        
000
ASUS41 KBOX 182010
RWRBOX

REGIONAL WEATHER ROUNDUP
NATIONAL WEATHER SERVICE BOSTON/NORTON MA
400 PM EDT THU APR 18 2024

NOTE:  "FAIR" INDICATES FEW OR NO CLOUDS BELOW 12,000 FEET WITH NO 
SIGNIFICANT WEATHER AND/OR OBSTRUCTIONS TO VISIBILITY.

MAZALL-182100-
EASTERN MASSACHUSETTS
  
CITY           SKY/WX    TMP DP  RH WIND       PRES   REMARKS
BOSTON         RAIN      45  40  82 NE8       30.18S                  
BEVERLY        LGT RAIN  46  39  76 NE7       30.18R                  
LAWRENCE       LGT RAIN  46  40  79 NE8       30.20S                  
BEDFORD        LGT RAIN  46  38  73 NE5       30.17R                  
NORWOOD        LGT RAIN  47  40  76 N8        30.17S                  
MARSHFIELD     CLOUDY    46  41  81 NE7       30.16S                  
PLYMOUTH       CLOUDY    48  38  68 NE8       30.14R                  
TAUNTON        CLOUDY    51  35  54 VRB6      30.14S                  
NEW BEDFORD    CLOUDY    51  36  56 NE10      30.12S                  
$$

MAZALL-182100-
CAPE COD AND THE ISLANDS
  
CITY           SKY/WX    TMP DP  RH WIND       PRES   REMARKS
FALMOUTH       CLOUDY    48  36  61 NE14      30.13R                  
HYANNIS        CLOUDY    48  34  58 E8        30.11S                  
CHATHAM        CLOUDY    47  39  74 NE14      30.14S                  
PROVINCETOWN   CLOUDY    46  41  82 E12       30.17R                  
NANTUCKET      CLOUDY    46  39  76 E12G23    30.10S                  
MARTHAS VNYRD  CLOUDY    47  39  74 NE14      30.11R                  
$$
 
MAZALL-182100-
CENTRAL AND WESTERN MASSACHUSETTS
  
CITY           SKY/WX    TMP DP  RH WIND       PRES   REMARKS
WORCESTER      LGT RAIN  43  36  76 NE9       30.14F                  
FITCHBURG      LGT RAIN  45  39  79 N5        30.18F                  
ORANGE         CLOUDY    45  39  79 N8        30.18S                  
SPRINGFIELD    LGT RAIN  46  36  68 NE6       30.13F                  
WESTFIELD      LGT RAIN  46  39  76 N5        30.16F                  
NORTH ADAMS    LGT RAIN  45  38  76 E13G24    30.15F                  
PITTSFIELD     CLOUDY    41  34  76 E9G18     30.13S HAZE             
$$
 
RIZALL-182100-
RHODE ISLAND
  
CITY           SKY/WX    TMP DP  RH WIND       PRES   REMARKS
PROVIDENCE     CLOUDY    49  35  58 N13       30.14S                  
NEWPORT        CLOUDY    49  33  54 E12G21    30.12S                  
BLOCK ISLAND   LGT RAIN  44  38  79 NE12G21   30.12R                  
SMITHFIELD     LGT RAIN  45  38  76 NE8       30.15S                  
WESTERLY       CLOUDY    48  37  65 NE5       30.12S                  
$$
 
CTZALL-182100-
CONNECTICUT
  
CITY           SKY/WX    TMP DP  RH WIND       PRES   REMARKS
BRADLEY INTL   LGT RAIN  47  40  76 NE7       30.16F                  
HARTFORD       CLOUDY    45  42  89 N8        30.16S                  
PLAINVILLE     CLOUDY    44  42  96 NE9       30.16R                  
BRIDGEPORT     CLOUDY    47  41  80 N10       30.14S                  
DANBURY        CLOUDY    46  39  76 NE8       30.15R HAZE             
GROTON         LGT RAIN  48  37  65 NE12      30.12R FOG              
NEW HAVEN      CLOUDY    48  43  82 NE9       30.14R                  
CHESTER        RAIN      43  41  93 N6        30.13R                  
MERIDEN        CLOUDY    45  40  82 N6        30.15S                  
WILLIMANTIC    LGT RAIN  43  41  93 N7        30.15R                  
OXFORD         CLOUDY    42  40  92 E7        30.15R                  
$$

MEZ002-015-021-024-NHZ003-005-008-011-012-014-VTZ005-008-182100-
NORTHERN NEW ENGLAND
  
CITY           SKY/WX    TMP DP  RH WIND       PRES   REMARKS
PORTLAND ME    PTSUNNY   49  37  63 E10       30.21S                  
BANGOR ME      MOSUNNY   59  33  37 S10       30.15F                  
CONCORD NH     LGT RAIN  46  39  76 SE3       30.19R                  
MANCHESTER NH  LGT RAIN  47  39  74 CALM      30.17S                  
NASHUA NH      LGT RAIN  45  45 100 NW7       30.19S                  
PORTSMOUTH NH  LGT RAIN  47  40  77 E6        30.19S                  
JAFFREY NH     LGT RAIN  44  38  79 CALM      30.17S                  
KEENE NH       LGT RAIN  43  40  89 NW5       30.18F                  
BURLINGTON VT  LGT RAIN  45  42  89 S8        30.14S                  
MT. WASHINGTON LGTSLEET  27  25  93 SE9         N/A  VSB 1/8 WCI  17  
$$

NYZ052-076-182100-
EASTERN NEW YORK
  
CITY           SKY/WX    TMP DP  RH WIND       PRES   REMARKS
ALBANY         LGT RAIN  46  40  79 SE6       30.17S                  
NEW YORK CITY  DRIZZLE   46  40  79 NE20G28   30.12F                  
$$
 
ANZALL-182100-
MARINE OBSERVATIONS
  
STATION/POSITION TIME  TEMP    WIND        PRES    VSBY  WAVE
                       AIR SEA DIR/SP/G                  HT/PER
                 (UTC) (F)     (DEG/KT/KT) (MB)    (MI)  (FT/S)
BOSTON BUOY      1950   45      40/  8/ 10 1021.6R         2/ 4
BUZZARDS BAY     1900   45      60/ 18/ 19 1020.0R
NANTUCKET SOUND  1950   46 47   70/ 16/ 19 1019.3S         2/ 4
MASS BAY-STELLWA 1804   45 45   90/  8/  8 1022.5R  1 7/8  2/ 4
ISLE OF SHOALS   1900   44      70/ 10/ 11 1021.9R
S OF BLOCK IS    1926      44                N/A           6/ 6
$$

......................KEY.........................
  SKY/WX - SKY CONDITION/PRESENT WEATHER
  TMP    - TEMPERATURE IN FAHRENHEIT
  DWPT   - DEWPOINT IN FAHRENHEIT
  RH     - RELATIVE HUMIDITY IN PERCENT
  WIND   - DIRECTION AND SPEED IN MPH
  PRES   - MEAN SEA LEVEL PRESSURE IN INCHES OF HG
  WCI    - WIND CHILL INDEX
  VSB    - VISIBILITY IN MILES
  HX     - HEAT INDEX
  TC     - TEMPERATURE IN CELSIUS
  VRB    - VARIABLE WIND DIRECTION
  N/A    - NOT AVAILABLE
  
      

Other recent Regional Weather Roundups

Mon Apr 22, 9:10am EDT

Mon Apr 22, 8:10am EDT

Mon Apr 22, 7:10am EDT

Mon Apr 22, 6:10am EDT

Mon Apr 22, 5:10am EDT

Mon Apr 22, 4:10am EDT

Mon Apr 22, 3:10am EDT

Mon Apr 22, 2:10am EDT

Mon Apr 22, 1:10am EDT

Mon Apr 22, 12:10am EDT

Sun Apr 21, 11:10pm EDT

Sun Apr 21, 10:10pm EDT

Sun Apr 21, 9:10pm EDT

Sun Apr 21, 8:10pm EDT

Sun Apr 21, 7:10pm EDT

Sun Apr 21, 6:10pm EDT

Sun Apr 21, 5:10pm EDT

Sun Apr 21, 4:10pm EDT

Sun Apr 21, 3:10pm EDT

Sun Apr 21, 2:10pm EDT

Sun Apr 21, 1:10pm EDT

Sun Apr 21, 12:10pm EDT

Sun Apr 21, 11:10am EDT

Sun Apr 21, 10:10am EDT

Sun Apr 21, 9:10am EDT

Sun Apr 21, 8:10am EDT

Sun Apr 21, 7:10am EDT

Sun Apr 21, 6:10am EDT

Sun Apr 21, 5:10am EDT

Sun Apr 21, 4:10am EDT

Sun Apr 21, 3:10am EDT

Sun Apr 21, 2:10am EDT

Sun Apr 21, 1:10am EDT

Sun Apr 21, 12:10am EDT

Sat Apr 20, 11:10pm EDT

Sat Apr 20, 10:10pm EDT

Sat Apr 20, 9:10pm EDT

Sat Apr 20, 8:10pm EDT

Sat Apr 20, 7:10pm EDT

Sat Apr 20, 6:10pm EDT

Sat Apr 20, 5:10pm EDT

Sat Apr 20, 4:10pm EDT

Sat Apr 20, 3:10pm EDT

Sat Apr 20, 2:10pm EDT

Sat Apr 20, 1:10pm EDT

Sat Apr 20, 12:10pm EDT

Sat Apr 20, 11:10am EDT

Sat Apr 20, 10:10am EDT

Sat Apr 20, 9:10am EDT

Sat Apr 20, 8:10am EDT

Sat Apr 20, 7:10am EDT

Sat Apr 20, 6:10am EDT

Sat Apr 20, 5:10am EDT

Sat Apr 20, 4:10am EDT

Sat Apr 20, 3:10am EDT

Sat Apr 20, 2:10am EDT

Sat Apr 20, 1:10am EDT

Sat Apr 20, 12:10am EDT

Fri Apr 19, 11:10pm EDT

Fri Apr 19, 10:10pm EDT

Fri Apr 19, 9:10pm EDT

Fri Apr 19, 8:10pm EDT

Fri Apr 19, 7:10pm EDT

Fri Apr 19, 6:10pm EDT

Fri Apr 19, 5:10pm EDT

Fri Apr 19, 4:10pm EDT

Fri Apr 19, 3:10pm EDT

Fri Apr 19, 2:10pm EDT

Fri Apr 19, 1:10pm EDT

Fri Apr 19, 12:10pm EDT

Fri Apr 19, 11:10am EDT

Fri Apr 19, 10:10am EDT

Fri Apr 19, 9:10am EDT

Fri Apr 19, 8:10am EDT

Fri Apr 19, 7:10am EDT

Fri Apr 19, 6:10am EDT

Fri Apr 19, 5:10am EDT

Fri Apr 19, 4:10am EDT

Fri Apr 19, 3:10am EDT

Fri Apr 19, 2:10am EDT

Fri Apr 19, 1:10am EDT

Fri Apr 19, 12:10am EDT

Thu Apr 18, 11:10pm EDT

Thu Apr 18, 10:10pm EDT

Thu Apr 18, 9:10pm EDT

Thu Apr 18, 8:10pm EDT

Thu Apr 18, 7:10pm EDT

Thu Apr 18, 6:10pm EDT

Thu Apr 18, 5:10pm EDT

Thu Apr 18, 3:10pm EDT

Thu Apr 18, 2:10pm EDT

Thu Apr 18, 1:10pm EDT

Thu Apr 18, 12:10pm EDT

Thu Apr 18, 11:10am EDT

Thu Apr 18, 10:10am EDT

Thu Apr 18, 9:10am EDT

Thu Apr 18, 8:10am EDT

Thu Apr 18, 7:10am EDT

Thu Apr 18, 6:10am EDT

Thu Apr 18, 5:10am EDT

Thu Apr 18, 4:10am EDT

Thu Apr 18, 3:10am EDT

Thu Apr 18, 2:10am EDT

Thu Apr 18, 1:10am EDT

Thu Apr 18, 12:10am EDT

Wed Apr 17, 11:10pm EDT

Wed Apr 17, 10:10pm EDT

Wed Apr 17, 9:10pm EDT

Wed Apr 17, 8:10pm EDT

Wed Apr 17, 7:10pm EDT

Wed Apr 17, 6:10pm EDT

Wed Apr 17, 5:10pm EDT

Wed Apr 17, 4:10pm EDT

Wed Apr 17, 3:10pm EDT

Wed Apr 17, 2:10pm EDT

Wed Apr 17, 1:10pm EDT

Wed Apr 17, 12:10pm EDT

Wed Apr 17, 11:10am EDT

Wed Apr 17, 10:10am EDT

Wed Apr 17, 9:10am EDT

Wed Apr 17, 8:10am EDT

Wed Apr 17, 7:10am EDT

Wed Apr 17, 6:10am EDT

Wed Apr 17, 5:10am EDT

Wed Apr 17, 4:10am EDT

Wed Apr 17, 3:10am EDT

Wed Apr 17, 2:10am EDT

Wed Apr 17, 1:10am EDT

Wed Apr 17, 12:10am EDT

Tue Apr 16, 11:10pm EDT

Tue Apr 16, 10:10pm EDT

Tue Apr 16, 9:10pm EDT

Tue Apr 16, 8:10pm EDT

Tue Apr 16, 7:10pm EDT

Tue Apr 16, 6:10pm EDT

Tue Apr 16, 5:10pm EDT

Tue Apr 16, 4:10pm EDT

Tue Apr 16, 3:10pm EDT

Tue Apr 16, 2:10pm EDT

Tue Apr 16, 1:10pm EDT

Tue Apr 16, 12:10pm EDT

Tue Apr 16, 11:10am EDT

Tue Apr 16, 10:10am EDT

Tue Apr 16, 9:10am EDT

Tue Apr 16, 8:10am EDT

Tue Apr 16, 7:10am EDT

Tue Apr 16, 6:10am EDT

Tue Apr 16, 5:10am EDT

Tue Apr 16, 4:10am EDT

Tue Apr 16, 3:10am EDT

Tue Apr 16, 2:10am EDT

Tue Apr 16, 1:10am EDT

Tue Apr 16, 12:10am EDT

Mon Apr 15, 11:10pm EDT

Mon Apr 15, 10:10pm EDT

Mon Apr 15, 9:10pm EDT

Mon Apr 15, 8:10pm EDT

Mon Apr 15, 7:10pm EDT

Mon Apr 15, 6:10pm EDT

Mon Apr 15, 5:10pm EDT

Mon Apr 15, 4:10pm EDT

Mon Apr 15, 3:10pm EDT

Mon Apr 15, 2:10pm EDT

Mon Apr 15, 1:10pm EDT

Mon Apr 15, 12:10pm EDT

Mon Apr 15, 11:10am EDT

Mon Apr 15, 10:10am EDT